WB7CYS Weather Reports


Display with metric or nautical units.
time (UTC)temp
F
wind
direction
speed
MPH
gust
MPH
rain 1hr
in
rain 24hr
in
rain mn
in
humidity
%
barometer
mb
20260506034532 65 100 4.0 6.0 0.00 0.00 0.00 64 1008.4
20260506033031 66 97 5.0 6.0 0.00 0.00 0.00 65 1008.2
20260506031530 68 86 5.0 5.0 0.00 0.00 0.00 62 1008.0
20260506030037 71 110 3.0 4.0 0.00 0.00 0.00 57 1008.0
20260506024553 73 40 3.0 4.0 0.00 0.00 0.00 48 1007.9
20260506023028 75 48 1.0 3.0 0.00 0.00 0.00 44 1007.9
20260506021528 75 38 2.0 5.0 0.00 0.00 0.00 45 1007.8
20260506020026 76 356 2.0 6.0 0.00 0.00 0.00 44 1007.7
20260506014525 76 37 2.0 6.0 0.00 0.00 0.00 45 1007.7
20260506013037 76 350 2.0 7.0 0.00 0.00 0.00 44 1007.7
20260506011524 76 40 2.0 7.0 0.00 0.00 0.00 46 1007.6
20260506010026 76 51 5.0 8.0 0.00 0.00 0.00 42 1007.6
20260506004523 76 356 4.0 6.0 0.00 0.00 0.00 43 1007.7
20260506003022 76 41 5.0 10.0 0.00 0.00 0.00 42 1007.6
20260506001522 76 61 5.0 9.0 0.00 0.00 0.00 40 1007.6
20260506000021 77 345 4.0 8.0 0.00 0.00 0.00 39 1007.7
20260505234518 76 54 5.0 12.0 0.00 0.00 0.00 40 1007.9
20260505233020 77 338 7.0 13.0 0.00 0.00 0.00 35 1007.9
20260505231514 77 352 7.0 13.0 0.00 0.00 0.00 39 1008.1
20260505230033 77 63 4.0 11.0 0.00 0.00 0.00 35 1008.1
20260505224512 77 341 6.0 12.0 0.00 0.00 0.00 35 1008.1
20260505223010 77 341 4.0 14.0 0.00 0.00 0.00 37 1008.2
20260505221509 76 326 12.0 16.0 0.00 0.00 0.00 36 1008.2
20260505220008 76 350 10.0 17.0 0.00 0.00 0.00 38 1008.3
20260505214509 75 304 4.0 15.0 0.00 0.00 0.00 39 1008.4
20260505213005 76 295 6.0 10.0 0.00 0.00 0.00 42 1008.5
20260505211502 75 9 5.0 7.0 0.00 0.00 0.00 45 1008.5
20260505210057 74 295 3.0 13.0 0.00 0.00 0.00 46 1008.6
20260505204606 73 328 5.0 10.0 0.00 0.00 0.00 46 1008.7
20260505203106 73 293 6.0 10.0 0.00 0.00 0.00 47 1008.8
20260505201551 72 248 5.0 9.0 0.00 0.00 0.00 51 1008.9
20260505200050 72 321 8.0 13.0 0.00 0.00 0.00 48 1009.0
20260505194602 71 323 4.0 13.0 0.00 0.00 0.00 48 1009.2
20260505193048 72 301 8.0 11.0 0.00 0.00 0.00 48 1009.1
20260505191546 71 329 2.0 12.0 0.00 0.00 0.00 49 1009.1
20260505190044 71 233 7.0 9.0 0.00 0.00 0.00 50 1009.2
20260505184542 70 245 8.0 11.0 0.00 0.00 0.00 52 1009.3
20260505183042 70 281 7.0 17.0 0.00 0.00 0.00 53 1009.4
20260505181537 69 240 1.0 9.0 0.00 0.00 0.00 56 1009.3
20260505180035 68 229 5.0 10.0 0.00 0.00 0.00 56 1009.3
20260505174534 68 259 6.0 10.0 0.00 0.00 0.00 57 1009.3
20260505173041 67 263 5.0 12.0 0.00 0.00 0.00 56 1009.3
20260505171529 67 269 7.0 13.0 0.00 0.00 0.00 58 1009.3
20260505170029 66 281 7.0 11.0 0.00 0.00 0.00 56 1009.2
20260505164544 66 267 6.0 9.0 0.00 0.00 0.00 57 1009.2
20260505163025 66 281 4.0 9.0 0.00 0.00 0.00 59 1009.1
20260505161524 66 203 3.0 6.0 0.00 0.00 0.00 59 1009.0
20260505153016 63 98 4.0 5.0 0.00 0.00 0.00 62 1009.0
20260505151517 63 109 4.0 6.0 0.00 0.00 0.00 63 1008.8
20260505140109 58 74 8.0 11.0 0.00 0.00 0.00 68 1008.0
20260505124544 0 0.0 0.0 0.00 0.00 0.00 1007.2
20260505123039 0 0.0 0.0 0.00 0.00 0.00 1007.1
20260505121537 0 0.0 0.0 0.00 0.00 0.00 1007.0
20260505120030 0 0.0 0.0 0.00 0.00 0.00 1006.8
20260505114533 0 0.0 0.0 0.00 0.00 0.00 1006.7
20260505113022 0 0.0 0.0 0.00 0.00 0.00 1006.6
20260505111517 0 0.0 0.0 0.00 0.00 0.00 1006.5
20260505101604 57 87 9.0 10.0 0.00 0.00 0.00 66 1006.1
20260505100057 58 111 7.0 11.0 0.00 0.00 0.00 65 1006.2
20260505094559 59 82 7.0 9.0 0.00 0.00 0.00 64 1006.0
20260505093054 58 247 1.0 4.0 0.00 0.00 0.00 64 1006.0
20260505091557 59 39 3.0 5.0 0.00 0.00 0.00 63 1005.8
20260505090057 59 94 4.0 6.0 0.00 0.00 0.00 62 1005.7
20260505084550 60 70 1.0 9.0 0.00 0.00 0.00 61 1005.7
20260505083049 60 66 6.0 8.0 0.00 0.00 0.00 61 1005.7
20260505081557 60 81 5.0 8.0 0.00 0.00 0.00 63 1005.7
20260505080048 59 85 2.0 6.0 0.00 0.00 0.00 63 1005.6
20260505074602 59 81 7.0 8.0 0.00 0.00 0.00 63 1005.5
20260505073038 60 80 3.0 6.0 0.00 0.00 0.00 63 1005.5
20260505071532 58 82 6.0 7.0 0.00 0.00 0.00 70 1005.3
20260505070030 56 93 4.0 4.0 0.00 0.00 0.00 72 1005.0
20260505064527 58 285 1.0 4.0 0.00 0.00 0.00 68 1004.8
20260505063034 61 225 4.0 6.0 0.00 0.00 0.00 60 1004.7
20260505061530 61 101 6.0 7.0 0.00 0.00 0.00 60 1004.4
20260505060025 62 104 6.0 13.0 0.00 0.00 0.00 58 1004.1
20260505054527 64 86 12.0 15.0 0.00 0.00 0.00 55 1003.9
20260505053022 64 108 9.0 12.0 0.00 0.00 0.00 55 1003.9
20260505051522 65 93 12.0 16.0 0.00 0.00 0.00 54 1003.8
20260505041518 65 89 7.0 9.0 0.00 0.00 0.00 54 1003.7
20260505040018 66 89 6.0 9.0 0.00 0.00 0.00 53 1003.7